This is the latest recevied weather packets stored in our database for station/object F4ETJ-1. If no packets are shown the sender has not sent any weather packets the latest 10 day(s).
| Time | Temp. | Humidity | Pressure | Rain* | Wind** | Luminosity | Snow |
|---|---|---|---|---|---|---|---|
| 1777563677 | 20.56° C | 74% | 1014.7 hPa | 0 mm | - | - | - |
| 1777563317 | 20.56° C | 75% | 1014.6 hPa | 0 mm | - | - | - |
| 1777562956 | 20.56° C | 73% | 1014.6 hPa | 0 mm | - | - | - |
| 1777562598 | 20.56° C | 70% | 1014.6 hPa | 0 mm | - | - | - |
| 1777562236 | 20.56° C | 72% | 1014.5 hPa | 0 mm | - | - | - |
| 1777561875 | 21.11° C | 75% | 1014.6 hPa | 0 mm | - | - | - |
| 1777561515 | 20.56° C | 76% | 1014.6 hPa | 0 mm | - | - | - |
| 1777561155 | 20° C | 77% | 1014.7 hPa | 0 mm | - | - | - |
| 1777560794 | 19.44° C | 77% | 1014.8 hPa | 0 mm | - | - | - |
| 1777560434 | 19.44° C | 77% | 1014.8 hPa | 0 mm | - | - | - |
| 1777560074 | 19.44° C | 79% | 1014.7 hPa | 0 mm | - | - | - |
| 1777559713 | 19.44° C | 80% | 1014.8 hPa | 0 mm | - | - | - |
| 1777559353 | 19.44° C | 83% | 1014.8 hPa | 0 mm | - | - | - |
| 1777558993 | 18.89° C | 84% | 1014.9 hPa | 0 mm | - | - | - |
| 1777558632 | 18.89° C | 84% | 1014.8 hPa | 0 mm | - | - | - |
| 1777558272 | 18.33° C | 83% | 1014.9 hPa | 0 mm | - | - | - |
| 1777557915 | 18.33° C | 85% | 1014.9 hPa | 0 mm | - | - | - |
| 1777557551 | 18.33° C | 85% | 1014.8 hPa | 0 mm | - | - | - |
| 1777557191 | 18.33° C | 86% | 1014.8 hPa | 0 mm | - | - | - |
| 1777556831 | 18.33° C | 86% | 1014.9 hPa | 0 mm | - | - | - |
| 1777556470 | 18.33° C | 87% | 1014.9 hPa | 0 mm | - | - | - |
| 1777556110 | 17.78° C | 87% | 1014.9 hPa | 0 mm | - | - | - |
| 1777555750 | 17.78° C | 88% | 1015 hPa | 0 mm | - | - | - |
| 1777555392 | 17.78° C | 88% | 1015 hPa | 0 mm | - | - | - |
| 1777555029 | 17.78° C | 90% | 1014.9 hPa | 0.25 mm | - | - | - |
* Rain latest hour (hover to see other rain measurements)
** Current wind speed in m/s (hover to see current wind gust speed)